Wind_Speed
14 15 15 15 14 13 13 13 13 12 11 11 10 9 8 8 8 7 7 7 8 8 7 7 8 8 8 7 7 6 6 6 6 6 6 6 6 6 7 7 8 8
15 15 16 16 15 14 13 13 12 12 11 10 9 9 8 8 8 8 7 7 7 7 7 7 7 7 8 8 7 7 7 6 6 6 6 6 6 6 6 6 7 7
16 16 16 16 16 15 15 13 12 11 11 10 9 9 9 9 8 9 9 8 8 8 8 8 8 8 8 8 8 8 8 8 8 7 7 7 7 7 7 7 7 7
17 17 17 17 17 16 16 15 14 13 12 11 10 10 10 9 9 10 10 10 10 10 10 10 10 10 10 10 9 9 8 8 9 9 8 8 8 8 8 8 8 8
17 17 17 17 17 17 17 16 16 15 14 13 12 12 11 10 10 10 10 10 11 11 11 11 11 11 11 11 11 10 10 9 9 9 9 8 8 8 8 8 8 8
18 17 17 17 17 17 17 17 17 16 15 14 14 13 12 12 11 11 11 11 11 11 12 12 12 12 12 12 12 11 11 10 9 9 8 8 8 8 7 7 8 8
19 18 18 17 17 17 17 17 17 16 16 15 15 14 13 12 12 11 11 12 12 12 12 12 12 12 12 12 11 11 11 10 10 9 9 8 8 7 7 7 7 7
20 19 19 18 18 18 18 18 18 17 16 16 16 15 14 13 12 12 12 12 12 12 12 12 12 12 12 11 11 11 11 11 10 10 10 9 8 8 7 7 7 6
22 21 21 21 21 21 20 20 19 19 18 18 17 16 15 14 13 12 12 12 12 12 12 12 12 12 12 12 12 12 12 12 12 12 12 11 9 9 9 8 7 6
24 24 23 23 23 23 23 22 21 21 20 20 19 18 17 16 14 13 13 12 12 12 12 12 12 13 12 12 12 13 13 13 13 13 13 12 11 10 10 9 7 6
25 25 25 25 25 25 24 23 22 22 22 21 20 20 19 18 17 16 15 14 13 12 12 13 13 13 13 14 14 14 14 14 14 14 14 13 13 12 11 10 9 7
25 25 25 25 24 24 24 23 23 22 22 22 21 21 20 19 18 18 17 16 15 14 14 14 14 14 15 15 15 15 15 14 14 14 14 14 13 13 13 12 11 10
24 24 24 24 24 24 24 24 23 23 23 23 23 22 21 21 20 20 20 19 17 16 16 15 15 16 17 17 17 17 16 15 15 14 14 14 14 13 14 14 13 12
24 24 24 24 24 25 26 26 25 25 25 25 25 24 23 23 23 22 22 21 20 19 18 17 17 18 19 19 19 19 18 17 16 15 14 14 14 14 14 15 15 14
24 25 25 25 26 26 27 27 26 26 27 27 27 27 26 25 25 24 24 23 23 21 20 19 19 19 20 21 21 21 20 19 18 17 16 15 15 15 15 15 16 16
25 26 26 26 27 27 27 27 27 26 27 28 28 28 28 27 27 26 26 25 25 24 23 21 21 21 21 21 21 21 21 21 20 19 18 17 16 16 16 16 16 16
26 27 28 28 29 30 30 29 29 28 28 28 29 29 29 28 28 27 27 27 27 27 25 24 24 23 23 22 21 21 21 21 21 21 20 19 19 18 17 17 16 16
26 27 28 28 29 31 31 32 32 31 31 30 30 30 29 29 28 27 27 28 28 29 28 27 26 26 25 24 23 22 21 21 21 21 21 21 21 20 19 18 17 16
24 24 24 25 26 27 28 31 34 34 33 33 33 33 31 30 29 28 28 28 29 30 30 29 28 27 27 26 25 24 23 22 22 22 22 22 22 22 22 21 19 17
22 22 22 23 23 24 24 27 32 36 37 37 37 36 35 34 33 31 30 30 30 30 31 30 29 28 28 28 27 25 24 24 24 24 23 23 23 24 24 24 22 20
21 20 21 22 22 22 22 23 27 33 38 40 40 39 38 37 35 34 32 31 31 31 32 31 30 29 28 28 28 27 26 26 25 25 25 25 25 25 25 25 25 24
23 21 20 20 20 20 21 22 23 27 32 37 40 40 39 37 36 35 34 33 33 33 34 33 32 31 30 30 29 29 28 28 27 27 27 27 27 27 27 27 27 27
24 23 22 20 19 19 20 21 20 20 22 27 32 36 37 36 35 35 34 34 34 35 35 35 35 35 34 33 32 32 32 31 30 29 28 28 28 28 28 28 29 28
24 24 24 23 21 21 21 22 21 20 18 18 21 26 30 32 33 32 32 33 33 35 36 36 35 36 36 35 34 34 35 35 33 31 30 29 29 30 30 30 30 30
26 25 25 25 24 23 22 22 23 23 21 17 16 18 21 25 28 29 31 31 32 33 35 34 33 33 34 34 34 35 36 37 36 35 33 32 31 30 31 31 32 32
28 27 26 25 25 24 23 22 21 22 21 20 19 18 17 19 21 24 26 26 26 28 30 31 31 31 31 32 34 35 36 36 35 35 34 34 32 31 31 31 33 33
Wind_Direction
190 194 194 193 194 190 185 186 187 185 184 185 186 186 186 185 186 190 193 190 189 192 194 191 188 190 192 192 194 196 193 188 189 186 184 187 186 186 188 193 203 211
192 195 196 197 197 195 193 191 189 189 190 192 194 195 195 197 199 203 208 208 206 209 213 213 211 209 209 210 210 212 213 212 212 211 209 209 208 206 205 204 207 213
196 197 197 198 198 199 200 198 194 196 199 202 205 207 208 210 212 215 220 222 222 223 226 229 230 229 228 227 226 226 228 229 228 227 225 225 225 224 222 221 221 222
198 199 198 198 199 201 204 202 200 202 206 209 214 218 220 222 224 227 230 231 232 234 236 238 240 241 241 239 238 238 239 239 236 235 233 232 232 232 230 229 229 229
201 202 202 201 201 203 206 206 204 204 208 213 218 222 225 229 232 236 238 238 239 241 243 245 246 248 248 247 246 245 244 244 242 240 238 236 236 237 236 236 235 234
205 206 206 205 205 206 208 210 209 208 209 213 220 224 226 229 234 239 243 243 243 244 246 247 249 250 250 251 252 251 250 249 247 244 240 238 238 238 241 242 240 237
210 210 210 211 212 213 213 213 214 213 212 215 219 224 228 232 237 242 246 247 246 246 246 247 247 248 249 251 253 255 255 254 253 251 246 242 241 241 243 244 243 240
213 213 214 215 216 218 218 217 218 218 218 219 222 225 229 234 239 243 247 249 250 249 248 245 244 243 244 248 251 254 255 256 257 257 255 250 245 246 248 247 245 244
212 214 216 217 218 220 220 220 221 222 222 224 225 227 229 232 236 240 244 247 250 252 251 246 242 239 239 242 247 250 252 255 256 257 257 254 250 250 251 251 248 246
213 214 216 217 218 220 221 221 223 224 226 228 228 228 228 227 228 232 236 240 245 248 250 248 244 241 240 241 243 247 249 253 255 256 257 255 253 252 252 253 251 248
217 216 218 219 221 222 222 223 224 226 228 230 231 231 229 227 226 228 231 233 237 241 244 245 244 243 244 244 244 247 249 251 254 257 258 258 256 253 252 252 251 251
221 222 223 225 227 228 229 228 227 228 230 231 232 233 233 232 231 231 232 233 233 235 238 240 241 243 245 246 247 248 249 251 254 256 257 258 257 256 254 252 250 250
224 225 226 228 230 232 233 233 231 230 231 232 233 234 235 236 237 238 238 239 238 238 238 239 240 242 246 248 250 251 252 252 253 255 255 255 255 255 255 253 251 248
227 227 227 227 229 231 233 234 234 233 233 234 234 235 236 238 240 241 243 244 244 243 243 242 242 245 248 250 253 255 255 255 254 254 253 252 252 252 252 252 251 249
228 229 230 230 230 232 233 234 234 235 236 237 236 236 236 237 240 242 244 246 247 248 247 247 246 247 249 252 256 259 261 262 261 259 257 255 253 252 251 251 250 249
229 229 230 232 233 234 235 237 237 237 238 239 239 238 237 237 237 240 243 245 248 249 250 250 250 250 251 253 257 263 268 270 270 269 267 265 261 258 256 254 253 252
235 235 232 231 233 235 236 236 237 238 239 240 240 240 239 239 239 239 241 244 247 248 248 248 250 251 252 253 256 260 266 271 274 275 274 273 270 266 262 260 257 257
240 242 239 236 237 240 241 240 238 236 237 239 241 242 241 241 241 241 242 244 246 247 246 246 246 249 251 253 254 256 259 264 268 271 272 273 273 272 269 265 262 260
238 240 239 239 240 242 243 243 240 237 236 237 240 243 243 243 242 242 243 244 246 247 248 247 247 248 250 252 253 255 257 259 261 264 267 268 270 272 273 272 270 266
233 236 238 240 242 243 244 244 243 241 238 237 238 241 243 245 245 244 243 244 247 250 251 252 251 251 252 254 255 256 257 258 259 260 262 263 265 267 269 271 272 271
234 235 239 241 243 246 247 246 245 244 242 240 240 241 242 244 245 245 245 245 247 250 253 255 256 256 256 256 257 257 257 257 257 257 259 260 260 262 264 266 268 269
238 238 241 244 245 246 247 248 248 247 244 243 242 241 241 241 243 244 245 246 248 250 252 254 256 256 256 255 255 256 256 255 255 255 256 258 259 260 262 263 265 266
242 243 244 246 246 243 243 247 249 249 248 245 242 239 238 239 242 244 246 248 249 251 253 253 253 253 254 254 253 254 255 255 254 253 254 255 256 258 260 261 263 264
241 241 240 242 245 244 245 248 249 249 249 245 240 237 236 238 241 244 247 248 250 252 253 254 254 253 253 253 253 254 255 255 254 253 252 253 254 255 257 258 260 261
240 243 243 244 247 249 251 253 252 252 252 250 245 241 238 239 241 242 244 247 249 252 252 251 252 253 253 253 251 252 254 253 251 249 248 249 252 254 255 257 258 259
241 244 246 246 247 249 251 253 253 253 254 254 254 252 248 246 245 243 243 244 249 253 252 250 249 251 253 253 251 250 251 250 249 246 244 246 250 253 254 257 259 260
Height
5957 5958 5959 5961 5962 5963 5964 5965 5966 5967 5968 5968 5969 5969 5970 5971 5971 5972 5973 5973 5974 5974 5975 5975 5975 5976 5976 5976 5977 5977 5977 5978 5978 5978 5979 5979 5980 5980 5981 5981 5982 5982
5956 5957 5958 5960 5961 5963 5964 5965 5966 5966 5967 5968 5969 5969 5970 5971 5971 5972 5973 5974 5974 5975 5975 5976 5976 5976 5976 5977 5977 5977 5977 5978 5978 5979 5979 5979 5980 5980 5980 5981 5981 5981
5956 5957 5958 5959 5960 5962 5963 5964 5965 5966 5966 5967 5968 5969 5970 5970 5971 5972 5973 5973 5974 5975 5975 5976 5976 5976 5976 5977 5977 5977 5977 5978 5978 5978 5979 5979 5979 5979 5980 5980 5980 5980
5956 5957 5958 5959 5960 5961 5962 5963 5964 5965 5966 5967 5968 5969 5969 5970 5971 5972 5972 5973 5974 5974 5975 5975 5976 5976 5976 5976 5977 5977 5977 5978 5978 5978 5978 5979 5979 5979 5979 5979 5979 5979
5956 5957 5958 5959 5959 5960 5961 5962 5963 5964 5965 5966 5967 5968 5969 5970 5971 5971 5972 5972 5973 5973 5974 5974 5975 5975 5976 5976 5976 5977 5977 5977 5978 5978 5978 5978 5978 5978 5978 5978 5978 5978
5955 5956 5957 5958 5959 5959 5960 5961 5962 5963 5964 5965 5966 5967 5968 5969 5970 5971 5971 5972 5972 5973 5973 5974 5974 5974 5975 5975 5976 5976 5977 5977 5978 5978 5978 5978 5978 5978 5978 5977 5977 5977
5953 5955 5956 5957 5958 5959 5960 5961 5962 5963 5964 5965 5965 5966 5967 5968 5969 5970 5971 5971 5972 5972 5972 5973 5973 5973 5974 5974 5975 5976 5976 5976 5977 5977 5977 5977 5977 5977 5977 5977 5977 5977
5951 5953 5954 5956 5957 5957 5959 5960 5961 5962 5963 5964 5964 5965 5966 5967 5968 5969 5969 5970 5971 5971 5971 5971 5972 5972 5973 5973 5974 5974 5975 5975 5976 5976 5976 5977 5977 5977 5977 5976 5976 5976
5949 5951 5952 5953 5954 5955 5957 5958 5959 5961 5962 5962 5963 5964 5965 5965 5966 5967 5968 5968 5969 5969 5970 5970 5971 5971 5971 5972 5972 5973 5974 5974 5974 5975 5975 5975 5976 5976 5976 5976 5975 5975
5947 5949 5950 5951 5952 5953 5954 5956 5958 5959 5960 5961 5962 5962 5963 5964 5964 5965 5965 5966 5967 5968 5968 5969 5970 5970 5971 5971 5971 5971 5972 5972 5973 5973 5974 5974 5974 5974 5975 5975 5975 5975
5946 5947 5948 5949 5950 5951 5953 5954 5956 5957 5958 5959 5960 5961 5962 5962 5963 5963 5963 5964 5964 5965 5967 5968 5969 5969 5970 5970 5970 5970 5970 5970 5971 5971 5972 5972 5973 5973 5973 5974 5974 5974
5945 5946 5947 5949 5950 5951 5952 5953 5955 5956 5957 5958 5959 5960 5961 5961 5962 5962 5962 5962 5963 5963 5965 5966 5967 5968 5968 5969 5969 5968 5968 5969 5969 5970 5970 5971 5971 5972 5972 5972 5972 5973
5943 5945 5946 5948 5949 5950 5951 5952 5953 5954 5955 5956 5957 5958 5959 5960 5960 5961 5961 5961 5962 5962 5963 5964 5965 5966 5966 5967 5967 5967 5967 5967 5967 5968 5968 5969 5969 5969 5970 5970 5970 5971
5941 5942 5943 5945 5946 5947 5948 5949 5951 5952 5953 5954 5955 5956 5957 5957 5958 5959 5959 5960 5960 5961 5961 5962 5962 5963 5964 5965 5965 5966 5966 5966 5966 5966 5966 5967 5967 5967 5968 5968 5968 5969
5938 5939 5941 5942 5943 5944 5945 5946 5948 5950 5952 5952 5953 5953 5954 5955 5956 5957 5958 5958 5958 5959 5959 5960 5960 5961 5961 5962 5964 5965 5965 5965 5965 5965 5965 5965 5966 5966 5966 5966 5966 5967
5935 5937 5938 5939 5940 5941 5943 5944 5946 5947 5948 5949 5950 5951 5951 5952 5952 5954 5955 5956 5956 5957 5957 5958 5958 5958 5958 5960 5961 5963 5964 5965 5965 5965 5965 5965 5965 5965 5965 5965 5965 5965
5932 5934 5935 5936 5936 5938 5940 5942 5943 5944 5944 5946 5947 5948 5948 5949 5949 5950 5952 5953 5954 5954 5954 5955 5955 5955 5956 5957 5959 5960 5962 5963 5964 5964 5964 5964 5964 5964 5964 5963 5963 5963
5929 5930 5932 5933 5933 5935 5936 5938 5939 5940 5941 5942 5943 5944 5945 5946 5947 5948 5949 5949 5950 5950 5951 5951 5952 5953 5954 5955 5956 5957 5959 5960 5961 5961 5962 5962 5962 5962 5962 5962 5961 5961
5926 5927 5928 5929 5930 5931 5933 5934 5935 5936 5937 5938 5939 5940 5942 5943 5944 5945 5945 5946 5947 5948 5948 5948 5949 5951 5952 5953 5954 5955 5956 5957 5958 5959 5959 5960 5960 5960 5961 5960 5960 5960
5924 5924 5925 5926 5927 5928 5929 5930 5931 5932 5932 5933 5935 5936 5938 5939 5940 5941 5942 5943 5944 5945 5946 5947 5948 5949 5950 5951 5952 5953 5954 5955 5956 5956 5956 5957 5957 5958 5958 5958 5958 5958
5921 5922 5923 5924 5924 5925 5926 5926 5927 5927 5928 5929 5930 5932 5933 5935 5936 5938 5939 5940 5941 5943 5944 5946 5947 5948 5949 5949 5950 5951 5951 5952 5953 5953 5954 5954 5954 5955 5955 5956 5956 5956
5918 5919 5920 5921 5922 5923 5923 5923 5923 5923 5923 5924 5925 5927 5929 5931 5932 5934 5936 5937 5939 5940 5942 5944 5944 5944 5945 5946 5947 5947 5948 5949 5950 5950 5951 5951 5951 5952 5952 5953 5953 5953
5915 5916 5917 5918 5919 5920 5921 5921 5921 5921 5920 5920 5921 5923 5925 5927 5928 5930 5932 5933 5935 5936 5938 5940 5940 5940 5941 5941 5942 5943 5944 5945 5946 5947 5948 5948 5949 5949 5949 5949 5949 5949
5911 5913 5914 5915 5916 5917 5918 5918 5918 5918 5918 5918 5918 5920 5922 5923 5925 5926 5928 5929 5930 5932 5934 5935 5935 5936 5937 5938 5938 5939 5940 5941 5943 5944 5944 5945 5945 5946 5946 5946 5946 5946
5908 5909 5910 5911 5912 5913 5914 5915 5915 5915 5916 5917 5917 5918 5919 5920 5921 5922 5924 5925 5926 5927 5928 5930 5931 5932 5933 5934 5935 5935 5936 5937 5938 5939 5940 5941 5942 5942 5942 5942 5942 5942
5905 5906 5906 5908 5909 5909 5910 5911 5912 5912 5913 5915 5915 5916 5916 5917 5918 5919 5921 5922 5923 5924 5924 5925 5926 5927 5928 5929 5930 5931 5932 5933 5934 5934 5935 5937 5938 5938 5938 5939 5939 5939